Location: WHS+Essen
(51.3947°N, 6.9794°E)
Time: 08:18:34
(UTC+02:00)

ISS - Pass Details

Date: 25 March 2019
Orbit: 408 x 410 km, 51.6° (Epoch: 24 April)

Event Time Altitude Azimuth Distance (km) Brightness Sun altitude
Rises 20:12:12 0° 241° (WSW) 2,331 0.7 -12.9°
Reaches altitude 10° 20:14:18 10° 236° (WSW) 1,472 -0.5 -13.2°
Maximum altitude 20:17:32 53° 159° (SSE) 507 -3.6 -13.6°
Enters shadow 20:19:03 27° 93° (E) 824 -2.8 -13.9°
